Hourly Data Report for February 03, 2018

MIRAMICHI RCS
NEW BRUNSWICK

47°00'34.000" N
65°27'54.000" W
33.00 m
8100989
71744
ACQ

Download Data

Hourly Data (February 2018)
Hourly Data Report for February 3, 2018
TIME
LST
Temp Definition
°C
Dew Point Definition
°C
Rel Hum Definition
%
Precip. Amount Definition
mm

Wind Dir Definition
10's deg

Wind Spd Definition
km/h
Visibility Definition
km
Stn Press Definition
kPa
Hmdx Definition


Wind Chill Definition


Weather Definition


00:00 -16.5 -21.0 68 0.0 27 14   100.18   -24 LegendNANA
01:00 -17.0 -21.8 66 0.0 27 13   100.27   -25 LegendNANA
02:00 -17.9 -22.1 69 0.0 26 17   100.34   -27 LegendNANA
03:00 -18.8 -23.0 69 0.0 25 11   100.49   -26 LegendNANA
04:00 -19.1 -23.5 68 0.0 26 13   100.60   -27 LegendNANA
05:00 -19.0 -23.9 65 0.0 27 18   100.71   -29 LegendNANA
06:00 -19.8 -24.6 66 0.0 26 16   100.84   -29 LegendNANA
07:00 -20.7 -25.1 68 0.0 25 14   101.00   -30 LegendNANA
08:00 -20.8 -25.6 66 0.0 26 14   101.16   -30 LegendNANA
09:00 -20.3 -25.7 62 0.0 25 16   101.30   -30 LegendNANA
10:00 -19.5 -25.3 60 0.0 25 19   101.39   -30 LegendNANA
11:00 -18.7 -25.4 56 0.0 26 21   101.46   -29 LegendNANA
12:00 -17.3 -25.1 51 0.0 27 23   101.48   -28 LegendNANA
13:00 -16.8 -24.6 51 0.0 26 21   101.50   -27 LegendNANA
14:00 -16.5 -24.8 49 0.0 26 23   101.52   -27 LegendNANA
15:00 -16.6 -24.4 51 0.0 24 26   101.62   -27 LegendNANA
16:00 -16.3 -24.3 50 0.0 26 23   101.72   -26 LegendNANA
17:00 -16.9 -24.3 53 0.0 26 20   101.83   -27 LegendNANA
18:00 -18.0 -24.2 58 0.0 25 16   101.94   -27 LegendNANA
19:00 -19.2 -24.2 65 0.0 25 10   102.07   -26 LegendNANA
20:00 -22.6 -26.6 70 0.0 19 4   102.18   -26 LegendNANA
21:00 -22.0 -25.0 77 0.0 19 4   102.28   -26 LegendNANA
22:00 -23.8 -26.9 76 0.0 22 2   102.34   -26 LegendNANA
23:00 -26.2 -28.8 79 0.0 0 1   102.38   -27 LegendNANA

Notes on Data Quality.

Legend

  • E = Estimated
  • M = Missing
  • NA = Not Available*
  • [empty] = Indicates an unobserved value
Date modified: